SID,Date,Time,pH,Free Cl,Total Cl,Iron,Mn,Color,Turbidity,Analyst
41224,01/01/2003,"1000      ",7.35,0.65,0.73,0.01,0.002,1,0.20, 
41225,01/02/2003,"0720      ",7.25,0.74,0.79,0.01,0.000,0,0.27, 
41226,01/03/2003,"0900      ",7.29,0.80,0.86,0.01,0.002,0,0.26, 
41227,01/04/2003,"1030      ",7.18,0.69,0.75,0.02,0.009,1,0.30, 
41228,01/05/2003,"1030      ",7.20,0.83,0.92,0.01,0.001,1,0.22, 
41229,01/06/2003,"0820      ",7.24,0.81,0.78,0.00,0.001,2,0.13, 
41230,01/07/2003,"0845      ",7.24,0.74,0.78,0.01,0.002,3,0.18, 
41231,01/08/2003,"0840      ",7.20,0.65,0.64,0.01,0.001,2,0.12, 
41232,01/09/2003,"0830      ",7.25,0.87,0.96,0.00,0.007,1,0.17, 
41233,01/10/2003,"0930      ",7.19,0.28,0.33,0.03,0.004,1,0.09, 
41234,01/11/2003,"1110      ",7.26,0.57,0.69,0.02,0.006,2,0.15, 
41235,01/12/2003,"0930      ",7.31,0.63,0.65,0.01,0.009,2,0.26, 
41236,01/13/2003,"0820      ",7.26,0.83,0.77,0.01,0.004,0,0.15, 
41237,01/14/2003,"0800      ",7.26,0.78,0.81,0.01,0.002,0,0.12, 
41238,01/15/2003,"0825      ",7.24,0.81,0.96,0.01,0.003,1,0.18, 
41239,01/16/2003,"0820      ",7.19,0.78,0.96,2.00,0.002,2,0.13, 
41240,01/17/2003,"0850      ",7.25,0.67,0.72,0.02,0.001,2,0.35, 
41241,01/18/2003,"1015      ",7.31,0.70,0.77,0.03,0.005,1,0.23, 
41242,01/19/2003,"0900      ",7.15,0.83,0.96,0.02,0.006,2,0.30, 
41243,01/20/2003,"0800      ",7.25,0.81,0.86,0.02,0.004,1,0.27, 
41244,01/21/2003,"0815      ",7.26,0.84,0.81,0.00,0.001,1,0.19, 
41245,01/22/2003,"0925      ",7.62,0.64,0.80,0.00,0.002,0,0.14, 
41246,01/23/2003,"0830      ",7.28,0.54,0.61,0.00,0.001,0,0.16, 
41247,01/24/2003,"0820      ",7.17,0.46,0.50,0.00,0.000,0,0.22, 
41248,01/25/2003,"1150      ",7.43,0.52,0.60,0.01,0.004,1,0.20, 
41249,01/26/2003,"0915      ",7.23,0.82,0.91,0.00,0.001,0,0.18, 
41250,01/27/2003,"0900      ",7.24,0.53,0.55,0.00,0.001,1,0.17, 
41251,01/28/2003,"1215      ",7.29,0.62,0.99,0.00,0.012,1,0.18, 
41252,01/29/2003,"0830      ",7.12,0.63,0.75,0.00,0.015,0,0.18, 
41253,02/01/2003,"1220      ",7.61,0.71,0.78,0.02,0.005,0,0.21, 
41254,02/02/2003,"0920      ",7.78,0.53,0.65,0.04,0.004,0,0.25, 
41255,02/03/2003,"0845      ",7.16,0.58,0.66,0.00,0.003,4,0.11, 
41256,02/04/2003,"0710      ",7.21,0.45,0.49,0.01,0.004,0,0.30, 
41257,02/05/2003,"0735      ",7.14,0.51,0.60,0.00,0.001,0,0.16, 
41258,02/06/2003,"0755      ",7.11,0.56,0.72,0.01,0.002,0,0.31, 
41259,02/07/2003,"0715      ",7.06,0.50,0.57,0.00,0.003,1,0.19, 
41260,02/08/2003,"1055      ",7.19,0.59,0.63,0.01,0.005,1,0.20, 
41261,02/09/2003,"0930      ",7.25,0.55,0.71,0.00,0.001,0,0.15, 
41262,02/11/2003,"0740      ",7.28,0.73,0.83,0.03,0.002,0,0.15, 
41263,02/12/2003,"0735      ",7.15,0.50,0.58,0.01,0.015,0,0.25, 
41264,02/13/2003,"0735      ",7.10,0.70,0.74,0.00,0.003,0,0.15, 
41265,02/14/2003,"0810      ",7.16,0.77,0.79,0.03,0.007,1,0.29, 
41266,02/15/2003,"1150      ",7.20,0.69,0.75,0.02,0.002,1,0.30, 
41267,02/19/2003,"0700      ",7.49,0.61,1.09,0.00,0.009,0,0.15, 
41268,02/20/2003,"0720      ",7.52,0.60,0.64,0.03,0.006,0,0.31, 
41269,02/21/2003,"0715      ",7.38,0.56,0.68,0.01,0.003,0,0.34, 
41270,02/22/2003,"1325      ",7.35,0.60,0.67,0.01,0.001,0,0.26, 
41271,02/23/2003,"0815      ",7.30,0.56,0.70,0.01,0.003,0,0.31, 
41272,02/24/2003,"0830      ",7.45,0.67,0.71,0.01,0.003,0,0.30, 
41273,02/25/2003,"0725      ",7.02,0.60,0.72,0.02,0.005,0,0.25, 
41274,02/26/2003,"0705      ",7.16,0.79,0.90,0.00,0.001,0,0.49, 
41275,02/27/2003,"0900      ",7.15,0.89,0.99,0.01,0.002,0,0.27, 
41276,02/28/2003,"0725      ",7.10,0.60,0.76,0.02,0.000,0,0.20, 
41277,03/01/2003,"1200      ",7.00,0.69,0.75,0.01,0.001,0,0.24, 
41278,03/02/2003,"0915      ",7.05,0.65,0.72,0.02,0.001,1,0.19, 
41279,03/03/2003,"0730      ",7.07,0.35,0.49,0.01,0.002,0,0.30, 
41280,03/04/2003,"0800      ",7.35,0.71,0.89,0.01,0.004,0,0.15, 
41281,03/05/2003,"1130      ",7.12,0.87,0.96,0.03,0.005,0,0.14, 
41282,03/06/2003,"0740      ",7.30,0.78,0.85,0.01,0.003,0,0.11, 
41283,03/07/2003,"0840      ",7.32,0.96,1.01,0.02,0.003,0,0.11, 
41284,03/08/2003,"0855      ",7.16,0.74,0.83,0.02,0.002,1,0.13, 
41285,03/09/2003,"0755      ",7.15,0.72,0.89,0.00,0.001,0,0.23, 
41286,03/10/2003,"0755      ",7.27,0.82,0.92,0.00,0.002,0,0.17, 
41287,03/11/2003,"0738      ",7.31,0.89,0.96,0.01,0.004,0,0.10, 
41288,03/12/2003,"0700      ",7.26,0.93,0.99,0.01,0.003,0,0.14, 
41289,03/13/2003,"0825      ",7.25,0.74,0.83,0.01,0.002,0,0.17, 
41290,03/14/2003,"0754      ",7.24,0.72,0.85,0.02,0.005,0,0.09, 
41291,03/15/2003,"0900      ",7.22,0.86,0.93,0.01,0.004,1,0.15, 
41292,03/16/2003,"1045      ",7.15,0.91,0.85,0.00,0.005,0,0.17, 
41293,03/17/2003,"0804      ",7.17,0.85,0.94,0.01,0.006,0,0.11, 
41294,03/18/2003,"0910      ",7.18,0.65,0.87,0.00,0.009,0,0.20, 
41295,03/19/2003,"0710      ",7.29,0.68,0.81,0.01,0.000,0,0.22, 
41296,03/20/2003,"1200      ",7.10,0.55,0.65,0.01,0.002,0,0.15, 
41297,03/21/2003,"0753      ",7.35,0.87,0.96,0.01,0.002,0,0.11, 
41298,03/22/2003,"1145      ",7.29,0.62,0.79,0.02,0.004,1,0.19, 
41299,03/23/2003,"0910      ",7.08,0.65,0.73,0.02,0.001,0,0.20, 
41300,03/24/2003,"0740      ",7.14,0.66,0.70,0.02,0.002,0,0.23, 
41301,03/25/2003,"0805      ",7.28,0.76,0.83,0.02,0.002,0,0.21, 
41302,03/26/2003,"0715      ",7.27,0.84,1.02,0.02,0.003,0,0.20, 
41303,03/27/2003,"0745      ",7.39,0.93,0.99,0.01,0.006,0,0.12, 
41304,03/28/2003,"0710      ",7.31,0.97,1.01,0.00,0.009,0,0.13, 
41305,03/29/2003,"1040      ",7.19,0.81,0.92,0.01,0.010,1,0.20, 
41306,03/30/2003,"0920      ",7.28,0.66,0.71,0.01,0.013,0,0.15, 
41307,03/31/2003,"0725      ",7.26,0.94,0.57,0.01,0.014,0,0.16, 
41308,04/01/2003,"0737      ",7.24,0.88,0.94,0.01,0.006,0,0.08, 
41309,04/02/2003,"0710      ",7.58,0.79,0.82,0.01,0.002,0,0.18, 
41310,04/03/2003,"0715      ",7.22,0.69,0.75,0.00,0.004,0,0.13, 
41311,04/04/2003,"0700      ",7.21,0.72,0.90,0.01,0.018,0,0.22, 
41312,04/05/2003,"0815      ",7.20,0.75,0.83,0.01,0.010,0,0.15, 
41313,04/06/2003,"0830      ",7.30,0.63,0.74,0.01,0.004,0,0.10, 
41314,04/07/2003,"0850      ",7.31,0.56,0.63,0.01,0.006,0,0.09, 
41315,04/09/2003,"1153      ",7.40,0.82,0.88,0.04,0.009,0,0.17, 
41316,04/10/2003,"0812      ",7.13,0.79,0.88,0.04,0.005,0,0.13, 
41317,04/11/2003,"0715      ",7.21,0.73,0.85,0.02,0.013,0,0.15, 
41318,04/12/2003,"0820      ",7.27,0.63,0.75,0.02,0.010,0,0.11, 
41319,04/13/2003,"1120      ",7.36,0.70,0.82,0.03,0.007,1,0.20, 
41320,04/14/2003,"0758      ",7.41,0.88,0.96,0.01,0.026,1,0.13, 
41321,04/15/2003,"0709      ",7.33,0.95,1.03,0.01,0.021,1,0.12, 
41322,04/16/2003,"0720      ",7.27,0.89,0.97,0.00,0.008,1,0.34, 
41323,04/17/2003,"0820      ",7.23,0.75,0.80,0.02,0.003,0,0.16, 
41324,04/18/2003,"0850      ",7.15,0.80,0.87,0.02,0.001,0,0.20, 
41325,04/19/2003,"0925      ",7.22,0.85,0.98,0.01,0.021,2,0.14, 
41326,04/20/2003,"0840      ",7.16,0.62,0.70,0.01,0.001,1,0.24, 
41327,04/21/2003,"0830      ",7.25,0.95,1.09,0.05,0.017,0,0.46, 
41328,04/22/2003,"0735      ",7.32,0.85,0.95,0.01,0.021,0,0.14, 
41329,04/23/2003,"0935      ",7.34,0.93,1.01,0.02,0.004,0,0.07, 
41330,04/24/2003,"0727      ",7.54,0.96,1.04,0.02,0.005,0,0.06, 
41331,04/25/2003,"0915      ",7.21,0.52,0.60,0.01,0.004,0,0.10, 
41332,04/26/2003,"0810      ",7.33,0.84,0.92,0.02,0.005,1,0.09, 
41333,04/27/2003,"1030      ",7.20,0.55,0.62,0.02,0.001,0,0.35, 
41334,04/28/2003,"0800      ",7.21,0.58,0.79,0.01,0.009,0,0.08, 
41335,04/29/2003,"0745      ",7.25,0.90,0.98,0.02,0.006,0,0.10, 
41336,04/30/2003,"0733      ",7.33,0.84,0.96,0.01,0.010,0,0.07, 
41337,05/01/2003,"0750      ",7.26,0.97,1.06,0.01,0.006,0,0.10, 
41338,05/02/2003,"0755      ",7.24,0.92,1.00,0.02,0.012,0,0.12, 
41339,05/03/2003,"0905      ",7.11,0.94,1.05,0.02,0.006,0,0.29, 
41340,05/04/2003,"0800      ",7.20,0.86,0.99,0.01,0.009,1,0.18, 
41341,05/05/2003,"0810      ",7.28,0.66,0.90,0.01,0.004,0,0.10, 
41342,05/06/2003,"0730      ",7.33,0.96,1.04,0.02,0.009,0,0.08, 
41343,05/07/2003,"0920      ",7.34,0.99,1.09,0.01,0.013,0,0.07, 
41344,05/08/2003,"0759      ",7.42,0.92,1.02,0.02,0.008,0,0.09, 
41345,05/09/2003,"0750      ",7.47,0.95,1.03,0.02,0.015,0,0.12, 
41346,05/10/2003,"0930      ",7.22,0.81,0.95,0.01,0.005,0,0.18, 
41347,05/11/2003,"0840      ",7.36,0.82,0.93,0.01,0.022,1,0.25, 
41348,05/12/2003,"0801      ",7.62,0.90,0.97,0.01,0.015,0,0.10, 
41349,05/13/2003,"0735      ",7.31,0.80,0.83,0.00,0.000,1,0.12, 
41350,05/14/2003,"0815      ",7.45,1.09,1.54,0.02,0.035,2,0.11, 
41351,05/15/2003,"0755      ",7.41,1.06,1.19,0.06,0.044,0,0.15, 
41352,05/16/2003,"0807      ",7.36,1.11,1.23,0.03,0.021,0,0.11, 
41353,05/17/2003,"0800      ",7.51,1.05,1.20,0.04,0.036,1,0.20, 
41354,05/18/2003,"0850      ",7.41,1.05,1.25,0.03,0.029,2,0.31, 
41355,05/19/2003,"0740      ",7.45,0.91,1.01,0.01,0.022,0,0.10, 
41356,05/20/2003,"0803      ",7.44,1.00,1.11,0.01,0.025,0,0.11, 
41357,05/21/2003,"0734      ",7.43,1.01,1.14,0.01,0.024,0,0.11, 
41358,05/22/2003,"1216      ",7.36,0.85,1.01,0.01,0.021,0,0.06, 
41359,05/23/2003,"0815      ",7.15,0.87,0.99,0.08,0.034,1,0.29, 
41360,05/24/2003,"1045      ",7.29,0.97,1.03,0.06,0.030,1,0.15, 
41361,05/25/2003,"0930      ",7.32,0.45,0.62,0.03,0.020,1,0.30, 
41362,05/26/2003,"0635      ",7.28,0.81,1.00,0.01,0.014,2,0.32, 
41363,05/27/2003,"0900      ",7.38,0.78,1.04,0.01,0.034,2,0.28, 
41364,05/28/2003,"1000      ",7.46,0.69,0.95,0.03,0.024,1,0.29, 
41365,05/29/2003,"0820      ",7.57,0.67,0.75,0.05,0.031,2,0.35, 
41366,05/30/2003,"0805      ",7.34,1.00,1.26,0.01,0.059,2,0.21, 
41367,05/31/2003,"0815      ",7.20,0.42,0.59,0.03,0.010,0,0.00, 
41368,06/01/2003,"0820      ",7.24,0.75,0.89,0.03,0.019,1,0.00, 
41369,06/02/2003,"0810      ",7.22,0.75,0.89,0.01,0.028,0,0.00, 
41370,06/03/2003,"0810      ",7.61,0.90,1.05,0.07,0.041,4,0.24, 
41371,06/04/2003,"0815      ",7.41,0.82,1.04,0.05,0.035,2,0.35, 
41372,06/05/2003,"0750      ",7.49,0.87,0.91,0.07,0.026,5,0.00, 
41373,06/06/2003,"1005      ",7.28,1.00,1.11,0.01,0.021,0,0.10, 
41374,06/07/2003,"0825      ",7.36,0.90,1.02,0.03,0.031,1,0.22, 
41375,06/08/2003,"0825      ",7.36,0.90,1.02,0.03,0.031,1,0.22, 
41376,06/09/2003,"0745      ",7.15,0.79,0.93,0.02,0.024,5,0.36, 
41377,06/10/2003,"0745      ",7.36,0.94,1.06,0.05,0.038,6,0.28, 
41378,06/11/2003,"0745      ",7.49,1.01,1.03,0.06,0.041,4,0.25, 
41379,06/12/2003,"0800      ",7.43,0.77,0.96,0.03,0.028,4,0.26, 
41380,06/13/2003,"0800      ",7.44,0.72,0.97,0.04,0.025,4,0.23, 
41381,06/14/2003,"1045      ",7.10,0.92,0.99,0.06,0.031,2,0.26, 
41382,06/15/2003,"0810      ",7.22,0.86,0.95,0.05,0.029,3,0.30, 
41383,06/16/2003,"0810      ",7.37,0.83,1.04,0.05,0.027,2,0.28, 
41384,06/17/2003,"0825      ",7.41,0.76,0.86,0.02,0.025,0,0.11, 
41385,06/18/2003,"0730      ",7.38,0.75,0.90,0.02,0.025,1,0.18, 
41386,06/19/2003,"0715      ",7.39,0.70,0.88,0.04,0.023,1,0.22, 
41387,06/20/2003,"1255      ",7.35,0.69,0.88,0.01,0.020,0,0.15, 
41388,06/21/2003,"0925      ",7.26,0.83,0.94,0.03,0.041,2,0.17, 
41389,06/22/2003,"0800      ",7.53,0.94,0.96,0.03,0.045,4,0.25, 
41390,06/23/2003,"1000      ",7.42,1.22,1.09,0.03,0.041,5,0.29, 
41391,06/24/2003,"0745      ",7.28,0.97,1.07,0.01,0.051,0,0.16, 
41392,06/25/2003,"0800      ",7.43,1.01,1.02,0.00,0.027,0,0.21, 
41393,06/26/2003,"0715      ",7.45,1.05,1.08,0.01,0.032,0,0.22, 
41394,06/27/2003,"0800      ",7.37,1.01,1.09,0.01,0.022,1,0.18, 
41395,06/28/2003,"0800      ",7.37,1.01,1.09,0.01,0.022,1,0.18, 
41396,06/29/2003,"0910      ",7.25,0.83,0.94,0.00,0.009,2,0.08, 
41397,06/30/2003,"0830      ",7.25,0.82,0.90,0.02,0.023,0,0.12, 
41398,07/01/2003,"0746      ",7.33,0.82,0.91,0.01,0.049,2,0.13, 
41399,07/02/2003,"0710      ",7.43,0.85,0.95,0.01,0.052,3,0.12, 
41400,07/03/2003,"0805      ",7.17,0.86,0.94,0.00,0.031,0,0.07, 
41401,07/04/2003,"0647      ",7.36,0.83,0.94,0.01,0.038,1,0.10, 
41402,07/05/2003,"0745      ",7.43,0.82,0.94,0.09,0.021,4,0.38, 
41403,07/06/2003,"1350      ",7.31,0.83,0.99,0.02,0.085,4,0.28, 
41404,07/07/2003,"1015      ",7.15,0.85,0.90,0.00,0.019,0,0.11, 
41405,07/08/2003,"0730      ",6.94,0.42,0.79,0.01,0.024,1,0.15, 
41406,07/09/2003,"0830      ",7.48,0.83,1.03,0.02,0.031,0,0.22, 
41407,07/10/2003,"0730      ",7.38,0.82,0.97,0.01,0.028,0,0.25, 
41408,07/11/2003,"0715      ",7.40,0.62,0.75,0.02,0.035,1,0.30, 
41409,07/12/2003,"0750      ",6.79,0.75,0.95,0.07,0.020,0,0.26, 
41410,07/13/2003,"0830      ",7.38,0.63,0.74,0.02,0.026,2,0.39, 
41411,07/14/2003,"0800      ",7.44,0.79,0.77,0.02,0.022,0,0.12, 
41412,07/15/2003,"0844      ",7.26,0.74,0.87,0.01,0.027,1,0.07, 
41413,07/16/2003,"0710      ",7.53,0.86,0.92,0.04,0.021,0,0.15, 
41414,07/17/2003,"0745      ",7.52,0.75,0.87,0.01,0.015,0,0.14, 
41415,07/18/2003,"0700      ",7.36,0.71,0.77,0.02,0.021,2,0.22, 
41416,07/19/2003,"0755      ",7.42,0.70,0.93,0.05,0.011,0,0.37, 
41417,07/20/2003,"1155      ",7.42,0.98,0.98,0.01,0.019,4,0.19, 
41418,07/21/2003,"0815      ",7.35,0.74,0.83,0.02,0.020,0,0.11, 
41419,07/22/2003,"0700      ",7.39,0.79,0.86,0.02,0.021,0,0.13, 
41420,07/23/2003,"0800      ",7.37,0.64,0.74,0.01,0.014,0,0.11, 
41421,07/24/2003,"0800      ",7.42,0.70,0.79,0.03,0.029,1,0.15, 
41422,07/25/2003,"0710      ",7.15,0.62,0.70,0.02,0.022,2,0.19, 
41423,07/26/2003,"0945      ",7.36,0.98,1.08,0.02,0.025,1,0.16, 
41424,07/27/2003,"0935      ",7.30,0.52,0.66,0.09,0.028,4,0.42, 
41425,07/28/2003,"0800      ",7.55,0.72,0.89,0.04,0.017,12,0.25, 
41426,07/29/2003,"0750      ",7.46,0.80,0.88,0.01,0.017,0,0.11, 
41427,07/30/2003,"0650      ",7.59,0.90,0.98,0.02,0.029,1,0.19, 
41428,07/31/2003,"1030      ",7.42,0.95,1.05,0.01,0.048,0,0.15, 
41429,08/01/2003,"0800      ",7.11,0.70,1.27,0.01,0.027,2,0.18, 
41430,08/02/2003,"1015      ",7.42,0.81,0.89,0.05,0.021,3,0.20, 
41431,08/04/2003,"1000      ",7.64,0.82,0.95,0.02,0.023,3,0.15, 
41432,08/05/2003,"1000      ",7.34,0.54,0.70,0.02,0.001,5,0.17, 
41433,08/06/2003,"0945      ",7.55,0.35,0.40,0.01,0.012,0,0.22, 
41434,08/07/2003,"0900      ",7.48,0.64,0.83,0.00,0.013,0,0.20, 
41435,08/08/2003,"0815      ",7.59,0.38,0.67,0.02,0.019,1,0.60, 
41436,08/09/2003,"0815      ",6.97,0.50,0.57,0.02,0.015,1,0.19, 
41437,08/10/2003,"0930      ",7.56,0.60,0.69,0.07,0.007,5,0.44, 
41438,08/11/2003,"0840      ",7.30,0.76,0.78,0.00,0.033,3,0.09, 
41439,08/12/2003,"0805      ",7.23,0.66,0.75,0.02,0.011,2,0.13, 
41440,08/13/2003,"0800      ",7.34,0.83,0.86,0.02,0.020,2,0.16, 
41441,08/14/2003,"0830      ",7.51,0.69,0.70,0.02,0.016,0,0.10, 
41442,08/15/2003,"0845      ",7.34,0.55,0.65,0.00,0.015,2,0.13, 
41443,08/16/2003,"0840      ",7.93,0.69,0.78,0.02,0.017,0,0.16, 
41444,08/17/2003,"0805      ",7.36,0.78,0.92,0.02,0.027,3,0.18, 
41445,08/18/2003,"0820      ",7.42,0.70,0.81,0.02,0.022,2,0.15, 
41446,08/19/2003,"0730      ",7.39,0.85,0.90,0.00,0.024,0,0.14, 
41447,08/20/2003,"0840      ",7.37,0.79,0.90,0.02,0.025,2,0.18, 
41448,08/21/2003,"0815      ",7.40,0.52,0.77,0.00,0.022,0,0.17, 
41449,08/22/2003,"0915      ",7.55,0.90,0.94,0.00,0.015,2,0.16, 
41450,08/23/2003,"0955      ",7.63,0.82,0.99,0.01,0.020,3,0.22, 
41451,08/24/2003,"0840      ",7.52,0.55,0.72,0.04,0.018,7,0.25, 
41452,08/25/2003,"0750      ",7.53,0.70,0.82,0.01,0.011,3,0.13, 
41453,08/26/2003,"0810      ",7.52,0.71,0.80,0.02,0.015,3,0.24, 
41454,08/27/2003,"0745      ",7.47,0.90,0.94,0.02,0.020,4,0.20, 
41455,08/28/2003,"0745      ",7.35,0.64,0.79,0.01,0.022,6,0.11, 
41456,08/29/2003,"1320      ",7.51,0.87,0.95,0.01,0.022,4,0.21, 
41457,08/30/2003,"0755      ",7.49,0.99,1.59,0.01,0.015,1,0.26, 
41458,08/31/2003,"0835      ",7.38,0.70,0.87,0.04,0.015,2,0.15, 
41459,09/01/2003,"0805      ",7.41,0.83,0.93,0.03,0.021,0,0.23, 
41460,09/02/2003,"0810      ",7.46,0.89,0.94,0.03,0.020,0,0.20, 
41461,09/03/2003,"1015      ",7.18,0.87,0.93,0.02,0.022,0,0.19, 
41462,09/04/2003,"0750      ",7.56,0.86,0.96,0.01,0.025,0,0.27, 
41463,09/05/2003,"0740      ",7.26,0.73,0.90,0.00,0.009,4,0.18, 
41464,09/06/2003,"0800      ",7.30,0.90,0.97,0.02,0.012,4,0.25, 
41465,09/07/2003,"0845      ",7.19,0.82,0.89,0.01,0.015,2,0.20, 
41466,09/08/2003,"0800      ",7.51,0.80,0.88,0.01,0.016,1,0.16, 
41467,09/09/2003,"0830      ",7.61,0.56,0.77,0.01,0.013,0,0.16, 
41468,09/10/2003,"0840      ",7.43,0.74,0.80,0.01,0.019,0,0.08, 
41469,09/11/2003,"0805      ",7.45,0.70,0.76,0.01,0.018,0,0.15, 
41470,09/12/2003,"0715      ",7.30,0.76,0.82,0.03,0.024,0,0.21, 
41471,09/13/2003,"0840      ",7.35,0.80,0.89,0.02,0.019,1,0.24, 
41472,09/14/2003,"0930      ",7.51,0.55,0.72,0.01,0.026,1,0.30, 
41473,09/15/2003,"0835      ",7.45,0.83,0.98,0.01,0.025,1,0.29, 
41474,09/16/2003,"0825      ",7.41,0.84,0.92,0.02,0.026,2,0.31, 
41475,09/17/2003,"0750      ",7.50,0.73,0.80,0.02,0.022,2,0.27, 
41476,09/18/2003,"0810      ",7.41,0.83,0.95,0.03,0.015,3,0.15, 
41477,09/19/2003,"0740      ",7.51,0.82,1.00,0.01,0.018,0,0.14, 
41478,09/20/2003,"0935      ",7.59,0.71,0.85,0.02,0.020,2,0.29, 
41479,09/21/2003,"1050      ",7.45,0.92,1.17,0.02,0.033,4,0.22, 
41480,09/22/2003,"0850      ",7.46,0.83,1.00,0.02,0.028,2,0.02, 
41481,09/23/2003,"1200      ",7.48,0.97,1.13,0.30,0.037,3,0.29, 
41482,09/24/2003,"0805      ",7.50,0.87,0.90,0.03,0.040,7,0.44, 
41483,09/25/2003,"0730      ",7.48,0.89,1.07,0.03,0.038,4,0.41, 
41484,09/26/2003,"0815      ",7.36,0.89,1.08,0.03,0.051,1,0.04, 
41485,09/27/2003,"1145      ",7.24,0.92,1.10,0.02,0.049,13,0.35, 
41486,09/28/2003,"1045      ",7.42,0.80,0.91,0.01,0.024,19,0.45, 
41487,09/29/2003,"0905      ",7.52,0.89,0.97,0.02,0.022,3,0.33, 
41488,09/30/2003,"0905      ",7.52,0.89,0.97,0.02,0.022,3,0.33, 
41489,10/01/2003,"0830      ",7.57,1.10,1.15,0.01,0.024,1,0.19, 
41490,10/02/2003,"0815      ",7.58,0.93,0.99,0.02,0.022,4,0.22, 
41491,10/03/2003,"0850      ",7.52,0.90,0.95,0.01,0.025,0,0.20, 
41492,10/04/2003,"0900      ",7.55,0.96,1.02,0.02,0.024,1,0.19, 
41493,10/05/2003,"0920      ",7.39,1.04,1.07,0.02,0.023,1,0.26, 
41494,10/06/2003,"0845      ",7.32,0.67,0.72,0.01,0.002,4,0.18, 
41495,10/07/2003,"0740      ",7.54,0.89,0.95,0.00,0.019,4,0.22, 
41496,10/08/2003,"0730      ",7.59,0.86,0.95,0.01,0.020,4,0.20, 
41497,10/09/2003,"0745      ",7.62,0.86,1.03,0.01,0.016,2,0.24, 
41498,10/10/2003,"0825      ",7.56,0.97,1.01,0.02,0.018,4,0.22, 
41499,10/11/2003,"0925      ",7.54,0.93,1.00,0.01,0.020,3,0.21, 
41500,10/12/2003,"0830      ",7.88,0.86,0.99,0.02,0.220,0,0.25, 
41501,10/13/2003,"0730      ",7.43,0.96,1.02,0.02,0.033,0,0.23, 
41502,10/14/2003,"0735      ",7.48,0.83,1.02,0.01,0.029,1,0.19, 
41503,10/15/2003,"0755      ",7.49,0.68,0.77,0.01,0.007,6,0.24, 
41504,10/16/2003,"0720      ",7.45,0.78,0.90,0.02,0.020,2,0.22, 
41505,10/17/2003,"0805      ",7.48,0.81,0.94,0.01,0.022,3,0.25, 
41506,10/18/2003,"0930      ",7.51,0.88,0.97,0.01,0.018,3,0.23, 
41507,10/19/2003,"0930      ",7.51,0.88,0.97,0.01,0.018,3,0.23, 
41508,10/20/2003,"0540      ",7.59,0.86,0.95,0.01,0.025,4,0.59, 
41509,10/21/2003,"1645      ",7.55,0.98,1.10,0.02,0.025,5,0.23, 
41510,10/22/2003,"0715      ",7.58,0.80,0.90,0.02,0.024,4,0.26, 
41511,10/23/2003,"0725      ",7.50,0.87,0.93,0.00,0.016,7,0.21, 
41512,10/24/2003,"0735      ",7.40,0.88,1.01,0.01,0.018,5,0.20, 
41513,10/25/2003,"0920      ",7.42,0.76,0.81,0.00,0.015,2,0.29, 
41514,10/26/2003,"0950      ",7.44,0.85,0.92,0.02,0.020,3,0.31, 
41515,10/27/2003,"0715      ",7.33,0.74,0.82,0.00,0.022,2,0.20, 
41516,10/28/2003,"0725      ",7.45,0.80,0.88,0.02,0.020,3,0.24, 
41517,10/29/2003,"0730      ",7.44,0.90,0.96,0.00,0.030,0,0.29, 
41518,10/30/2003,"0805      ",7.40,0.71,0.87,0.01,0.025,2,0.21, 
41519,10/31/2003,"0720      ",7.41,1.10,1.18,0.03,0.024,3,0.32, 
41520,11/01/2003,"0930      ",7.52,0.71,0.80,0.04,0.032,2,0.42, 
41521,11/02/2003,"1115      ",7.43,0.82,0.91,0.03,0.021,2,0.31, 
41522,11/03/2003,"0715      ",7.31,0.64,0.92,0.00,0.006,0,0.19, 
41523,11/04/2003,"0805      ",7.44,0.64,0.88,0.02,0.020,1,0.21, 
41524,11/05/2003,"0700      ",7.40,0.97,1.07,0.02,0.020,0,0.31, 
41525,11/06/2003,"0710      ",7.39,0.90,0.97,0.00,0.018,2,0.24, 
41526,11/07/2003,"0710      ",7.34,0.82,0.93,0.01,0.017,2,0.27, 
41527,11/08/2003,"0910      ",7.50,0.71,0.89,0.01,0.020,0,0.22, 
41528,11/09/2003,"0945      ",7.29,0.75,0.96,0.02,0.025,1,0.30, 
41529,11/10/2003,"0835      ",7.48,0.75,0.89,0.02,0.001,0,0.18, 
41530,11/11/2003,"0830      ",7.75,0.66,0.77,0.02,0.016,2,0.14, 
41531,11/12/2003,"0715      ",7.32,1.00,1.09,0.02,0.022,1,0.24, 
41532,11/13/2003,"0730      ",7.36,0.85,0.93,0.00,0.017,1,0.30, 
41533,11/14/2003,"0715      ",7.34,0.84,0.91,1.00,0.018,1,0.28, 
41534,11/15/2003,"1110      ",7.41,0.75,0.87,0.02,0.025,2,0.45, 
41535,11/16/2003,"1015      ",7.29,0.70,0.88,0.01,0.002,2,0.24, 
41536,11/17/2003,"0915      ",7.25,0.72,0.87,0.03,0.001,2,0.19, 
41537,11/18/2003,"0730      ",7.39,0.73,0.92,0.02,0.002,2,0.22, 
41538,11/19/2003,"0730      ",7.20,0.85,0.97,0.00,0.009,0,0.17, 
41539,11/20/2003,"1110      ",7.25,0.82,0.94,1.00,0.007,2,0.19, 
41540,11/21/2003,"0715      ",7.32,0.95,0.99,0.00,0.018,0,0.24, 
41541,11/22/2003,"1005      ",7.44,0.60,0.72,0.01,0.006,1,0.20, 
41542,11/23/2003,"0845      ",7.35,0.75,0.82,0.01,0.016,1,0.32, 
41543,11/24/2003,"0820      ",7.35,0.78,0.84,0.01,0.006,0,0.21, 
41544,11/25/2003,"0700      ",7.34,0.75,0.94,0.01,0.006,1,0.31, 
41545,11/26/2003,"0710      ",7.35,0.74,0.86,0.01,0.016,1,0.21, 
41546,11/27/2003,"0920      ",7.26,0.55,0.72,0.02,0.010,0,0.28, 
41547,11/28/2003,"1340      ",7.26,0.85,0.84,0.00,0.003,0,0.35, 
41548,11/29/2003,"1115      ",7.30,0.70,0.81,0.01,0.011,1,0.42, 
41549,11/30/2003,"1130      ",7.27,0.63,0.75,0.03,0.015,1,0.35, 
41550,12/01/2003,"0835      ",7.46,0.88,0.95,0.00,0.001,1,1.80, 
41551,12/02/2003,"0700      ",7.33,0.89,0.96,0.01,0.024,0,2.10, 
41552,12/03/2003,"0915      ",7.27,0.83,0.88,0.01,0.022,0,2.80, 
41553,12/04/2003,"0715      ",7.21,0.93,1.01,0.00,0.026,0,2.00, 
41554,12/05/2003,"0650      ",7.30,0.81,0.90,0.01,0.024,0,2.30, 
41555,12/06/2003,"1055      ",7.39,0.53,0.71,0.01,0.019,1,3.10, 
41556,12/07/2003,"1045      ",7.27,0.80,0.86,0.00,0.017,2,2.60, 
41557,12/08/2003,"1035      ",6.93,0.82,0.85,0.00,0.012,0,0.15, 
41558,12/09/2003,"0720      ",7.33,0.77,0.85,0.00,0.016,1,0.24, 
41559,12/10/2003,"0810      ",7.28,0.86,0.94,0.01,0.015,0,0.25, 
41560,12/11/2003,"0745      ",7.38,0.59,0.81,0.00,0.018,0,0.28, 
41561,12/12/2003,"0715      ",7.39,0.48,0.65,1.00,0.008,1,0.31, 
41562,12/13/2003,"0925      ",7.22,0.74,0.83,0.01,0.001,1,0.35, 
41563,12/14/2003,"1040      ",7.20,0.95,1.16,0.00,0.024,4,0.39, 
41564,12/15/2003,"0840      ",7.29,0.88,0.96,0.01,0.001,1,0.23, 
41565,12/16/2003,"0720      ",7.35,0.94,1.02,0.00,0.026,1,0.38, 
41566,12/17/2003,"0905      ",7.31,1.18,1.19,0.00,0.041,0,0.46, 
41567,12/18/2003,"0725      ",7.34,0.63,0.82,0.00,0.024,0,0.36, 
41568,12/19/2003,"0710      ",7.41,1.08,1.11,0.01,0.018,6,0.42, 
41569,12/20/2003,"1030      ",7.46,1.15,1.22,0.02,0.029,4,0.40, 
41570,12/21/2003,"1100      ",7.25,0.70,0.90,0.00,0.011,1,0.27, 
41571,12/22/2003,"1320      ",7.31,0.65,1.24,0.03,0.011,0,0.35, 
41572,12/23/2003,"0805      ",7.29,0.62,1.02,0.00,0.017,2,0.37, 
41573,12/24/2003,"0725      ",7.30,0.86,0.94,0.01,0.012,1,0.31, 
41574,12/25/2003,"1145      ",7.14,0.94,1.03,0.02,0.020,2,0.25, 
41575,12/26/2003,"1705      ",7.29,1.25,1.54,0.02,0.038,5,0.37, 
41576,12/27/2003,"0745      ",7.31,1.12,1.18,0.01,0.038,3,0.25, 
41577,12/28/2003,"0825      ",7.30,0.94,1.04,0.02,0.039,2,0.45, 
41578,12/29/2003,"1915      ",7.21,1.12,1.24,0.04,0.031,1,0.14, 
41579,12/30/2003,"0755      ",7.39,1.01,1.12,0.02,0.038,2,0.24, 
41580,12/31/2003,"0900      ",7.27,1.09,1.16,0.00,0.036,1,0.18, 
Total Samples:, , ,357,357,357,357,357,357,357

Average Value:, , ,7.34,0.79,0.90,0.03,0.017,1.4,0.26
